[[{"header":{"parameterUnit":"m.s-1","parameterCategory":1,"la1":30.2991,"la2":30.254,"lo1":-89.0895,"lo2":-89.0444,"dy":0.0017,"dx":0.0017,"nx":28,"ny":28,"refTime":"2025-08-25T03:00:00:Z","depth":0,"parameterNumber":2,"parameterNumberName":"U-component_of_WINDS"},"data":[0,0,0,0,0,0,0,0,0,0,0,0,0,0,0,0,0,0,0,0,0,0,0,0,0,0,0,0,0,0,0,0,0,0,0,0,0,0,0,0,0,0,0,0,0,0,0,0,0,0,0,0,0,0,0,0,0,0,-0.9116,-0.9116,0,-0.9084,-0.9083,-0.9083,-0.9027,-0.9026,-0.9025,-0.9024,-0.8991,-0.8991,-0.8991,0,0,0,0,0,0,0,0,0,0,0,0,0,-0.9132,-0.9132,-0.9117,-0.9116,-0.9116,-0.9084,-0.9083,-0.9083,-0.9027,-0.9026,-0.9025,-0.9024,-0.8991,-0.8991,-0.8991,0,0,0,0,0,0,0,0,0,0,0,0,0,-0.9115,-0.9132,-0.9117,-0.9084,-0.9081,-0.9084,-0.9083,-0.9083,-0.9028,-0.9026,-0.9025,-0.9023,-0.8991,-0.8991,-0.8991,-0.9023,0,0,-0.8991,-0.8991,0,0,0,0,0,0,0,0,-0.9116,-0.9114,-0.9089,-0.9086,-0.9083,-0.9058,-0.9076,-0.9063,-0.9028,-0.9048,-0.9024,-0.9022,-0.9014,-0.9012,-0.901,-0.9021,-0.902,-0.8991,-0.8991,-0.8991,-0.8991,0,0,0,0,0,0,0,-0.9117,-0.9116,-0.9103,-0.9089,-0.9085,-0.9072,-0.9067,-0.9074,-0.904,-0.9046,-0.9042,-0.9039,-0.9012,-0.901,-0.9008,-0.9019,-0.8991,-0.8991,-0.8991,-0.8991,-0.9056,-0.9058,0,0,0,0,0,0,-0.9123,-0.9117,-0.9105,-0.9103,-0.9096,-0.9073,-0.9068,-0.9068,-0.904,-0.9034,-0.904,-0.9036,-0.901,-0.9008,-0.9007,-0.9043,-0.8991,-0.8991,-0.8991,-0.9054,-0.9056,-0.9058,0,0,0,0,0,0,-0.9124,-0.9123,-0.9106,-0.9109,-0.9105,-0.9074,-0.9074,-0.9068,-0.9065,-0.9036,-0.9029,-0.9044,-0.9009,-0.9007,-0.9019,-0.9041,-0.8991,-0.8991,-0.9052,-0.9055,-0.9057,-0.9115,0,0,0,0,0,0,-0.9124,-0.9123,-0.9135,-0.9109,-0.9106,-0.9119,-0.9075,-0.9068,-0.9065,-0.906,-0.9037,-0.9032,-0.9008,-0.902,-0.902,-0.904,-0.8992,-0.905,-0.9054,-0.9057,-0.9111,-0.9119,-0.9126,0,0,0,0,0,-0.9125,-0.9152,-0.9135,-0.9134,-0.9119,-0.912,-0.9118,-0.9089,-0.9067,-0.9079,-0.906,-0.9033,-0.9039,-0.9021,-0.9021,-0.9042,-0.9049,-0.9053,-0.9056,-0.9107,-0.9117,-0.9126,0,0,0,0,0,0,-0.918,-0.9148,-0.9129,-0.9148,-0.9138,-0.9111,-0.9124,-0.9101,-0.9095,-0.9091,-0.9055,-0.9051,-0.9068,-0.9056,-0.9037,-0.9072,-0.904,-0.9043,-0.9079,-0.9088,-0.9095,-0.9097,-0.8992,0,0,0,0,0,-0.9195,-0.9198,-0.9169,-0.9189,-0.9185,-0.9156,-0.9155,-0.9134,-0.9121,-0.9116,-0.9098,-0.9087,-0.9086,-0.9086,-0.9084,-0.9109,-0.9103,-0.9123,-0.9131,-0.9137,-0.9141,-0.9154,-0.9162,-0.907,-0.907,-0.907,0,0,-0.9224,-0.9207,-0.9211,-0.92,-0.9189,-0.9193,-0.9152,-0.9158,-0.9161,-0.9117,-0.9127,-0.9114,-0.9099,-0.9119,-0.9126,-0.9109,-0.9165,-0.9142,-0.9147,-0.9147,-0.9158,-0.9167,-0.9175,-0.9073,-0.9072,-0.9072,0,0,-0.928,-0.9268,-0.9283,-0.9273,-0.9257,-0.9238,-0.9242,-0.9219,-0.9208,-0.9219,-0.9186,-0.9189,-0.9189,-0.9179,-0.9175,-0.923,-0.9204,-0.923,-0.9269,-0.9282,-0.9289,-0.9295,-0.9315,-0.9323,-0.9234,-0.9234,-0.9234,0,-0.9319,-0.9324,-0.9294,-0.9302,-0.9299,-0.9259,-0.9275,-0.9267,-0.9251,-0.925,-0.9231,-0.9231,-0.9218,-0.9234,-0.9248,-0.9245,-0.9249,-0.9232,-0.9291,-0.9297,-0.9302,-0.932,-0.9328,-0.9237,-0.9237,-0.9236,-0.9236,0,-0.9373,-0.9377,-0.9392,-0.9378,-0.9376,-0.9388,-0.936,-0.9361,-0.9341,-0.9324,-0.9336,-0.9319,-0.9313,-0.9316,-0.9296,-0.933,-0.932,-0.9297,-0.9264,-0.9314,-0.9331,-0.9338,-0.9242,-0.924,-0.924,-0.9239,0,0,-0.9462,-0.9432,-0.9437,-0.9431,-0.9411,-0.9414,-0.9425,-0.9419,-0.9421,-0.9412,-0.9421,-0.9422,-0.9401,-0.9395,-0.9374,-0.9386,-0.9431,-0.9361,-0.936,-0.9375,-0.9468,-0.9486,-0.9494,-0.9414,-0.9416,-0.9417,-0.9469,0,-0.9513,-0.953,-0.9503,-0.9526,-0.953,-0.9493,-0.9503,-0.9492,-0.9477,-0.9478,-0.9461,-0.9463,-0.9434,-0.9431,-0.9441,-0.9423,-0.9449,-0.9419,-0.9422,-0.9422,-0.9426,-0.9503,-0.9521,-0.9571,-0.9476,-0.9477,-0.9477,0,-0.9576,-0.957,-0.9593,-0.9573,-0.9573,-0.9582,-0.9575,-0.9577,-0.9565,-0.9553,-0.9548,-0.9523,-0.9533,-0.9502,-0.9515,-0.9496,-0.9495,-0.9487,-0.9488,-0.9487,-0.9453,-0.9503,-0.9587,-0.9594,-0.9487,-0.9487,-0.9486,0,-0.9638,-0.9636,-0.965,-0.9646,-0.9622,-0.9629,-0.962,-0.9606,-0.9605,-0.9599,-0.9598,-0.9594,-0.9591,-0.9589,-0.9564,-0.9544,-0.9581,-0.9547,-0.9571,-0.9572,-0.958,-0.9579,-0.9664,-0.9581,-0.958,-0.958,-0.958,0,-0.9699,-0.9714,-0.9678,-0.9686,-0.9703,-0.9673,-0.969,-0.9677,-0.9665,-0.9671,-0.964,-0.9646,-0.9613,-0.9615,-0.9596,-0.961,-0.9609,-0.96,-0.9595,-0.9603,-0.9604,-0.9602,-0.9597,-0.9582,-0.9582,-0.9581,-0.9581,0,-0.9771,-0.9747,-0.9759,-0.9737,-0.9731,-0.9745,-0.9725,-0.9732,-0.9716,-0.9723,-0.9723,-0.9697,-0.9699,-0.9674,-0.9671,-0.9658,-0.9681,-0.9669,-0.9685,-0.9681,-0.9706,-0.9704,-0.9792,-0.9802,-0.9713,-0.9714,-0.9714,0,-0.9811,-0.9822,-0.98,-0.9802,-0.9794,-0.9797,-0.9795,-0.9767,-0.9767,-0.9754,-0.9763,-0.9762,-0.976,-0.9764,-0.9745,-0.9743,-0.9731,-0.9762,-0.973,-0.9738,-0.9731,-0.9731,-0.9732,-0.9768,-0.9769,-0.977,-0.9771,0,-0.9884,-0.9872,-0.9871,-0.9867,-0.9866,-0.9861,-0.9854,-0.9857,-0.9826,-0.9828,-0.9829,-0.9828,-0.9825,-0.9824,-0.9819,-0.9809,-0.9785,-0.9781,-0.9787,-0.9795,-0.9803,-0.9799,-0.9703,-0.9779,-0.9778,-0.9778,-0.9777,-0.9777,-0.9941,-0.9949,-0.9936,-0.9936,-0.9928,-0.9923,-0.9928,-0.9913,-0.9913,-0.9908,-0.9892,-0.9896,-0.9885,-0.9874,-0.9867,-0.9871,-0.9856,-0.9863,-0.9865,-0.9868,-0.9872,-0.9803,-0.987,-0.9869,-0.9869,-0.9869,-0.9869,0,-1.0012,-1.0002,-1.0003,-0.9994,-0.9995,-0.9973,-0.9964,-0.9966,-0.9971,-0.9961,-0.996,-0.9962,-0.9962,-0.9944,-0.9941,-0.9948,-0.9937,-0.9948,-0.9947,-0.9945,-0.9886,-0.9881,-0.9957,-0.9957,-0.9957,-0.9957,-0.9957,-0.9957,-1.005,-1.0063,-1.005,-1.0059,-1.0048,-1.0052,-1.005,-1.0045,-1.0037,-1.0041,-1.0041,-1.0029,-1.0016,-1.0013,-1.0012,-1.0007,-1.0007,-1.0022,-1.0013,-0.9958,-0.9949,-0.9941,-0.9937,-1.0023,-1.0023,-1.0072,-1.0073,-1.0073]},{"header":{"parameterUnit":"m.s-1","parameterCategory":1,"la1":30.2991,"la2":30.254,"lo1":-89.0895,"lo2":-89.0444,"dy":0.0017,"dx":0.0017,"nx":28,"ny":28,"refTime":"2025-08-25T03:00:00:Z","depth":0,"parameterNumber":3,"parameterNumberName":"V-component_of_WINDS"},"data":[0,0,0,0,0,0,0,0,0,0,0,0,0,0,0,0,0,0,0,0,0,0,0,0,0,0,0,0,0,0,0,0,0,0,0,0,0,0,0,0,0,0,0,0,0,0,0,0,0,0,0,0,0,0,0,0,0,0,2.9161,2.9161,0,2.9177,2.9177,2.9177,2.92,2.92,2.9201,2.9201,2.9215,2.9215,2.9215,0,0,0,0,0,0,0,0,0,0,0,0,0,2.915,2.915,2.9161,2.9162,2.9162,2.9177,2.9177,2.9177,2.92,2.92,2.9201,2.9201,2.9215,2.9215,2.9215,0,0,0,0,0,0,0,0,0,0,0,0,0,2.9159,2.915,2.9161,2.9175,2.9176,2.9177,2.9177,2.9177,2.92,2.92,2.9201,2.9201,2.9215,2.9215,2.9215,2.9203,0,0,2.9215,2.9215,0,0,0,0,0,0,0,0,2.9158,2.9159,2.9173,2.9174,2.9175,2.9187,2.9178,2.9186,2.92,2.9191,2.9201,2.9202,2.9205,2.9206,2.9207,2.9203,2.9204,2.9215,2.9215,2.9215,2.9215,0,0,0,0,0,0,0,2.9158,2.9159,2.9167,2.9173,2.9175,2.918,2.9182,2.918,2.9194,2.9192,2.9193,2.9195,2.9206,2.9207,2.9208,2.9204,2.9215,2.9215,2.9215,2.9215,2.9191,2.919,0,0,0,0,0,0,2.9155,2.9158,2.9167,2.9168,2.9168,2.9179,2.9182,2.9183,2.9194,2.9197,2.9194,2.9196,2.9207,2.9208,2.9208,2.9195,2.9215,2.9215,2.9215,2.9191,2.9191,2.919,0,0,0,0,0,0,2.9155,2.9156,2.9166,2.9163,2.9165,2.9179,2.918,2.9183,2.9184,2.9196,2.9199,2.9193,2.9207,2.9208,2.9204,2.9195,2.9215,2.9215,2.9192,2.9191,2.919,2.9167,0,0,0,0,0,0,2.9154,2.9156,2.9151,2.9163,2.9165,2.9162,2.918,2.9183,2.9184,2.9186,2.9196,2.9198,2.9208,2.9204,2.9204,2.9196,2.9215,2.9193,2.9192,2.9191,2.9169,2.9166,2.9163,0,0,0,0,0,2.9154,2.9144,2.9151,2.9152,2.916,2.9162,2.9163,2.9175,2.9184,2.9179,2.9187,2.9198,2.9197,2.9203,2.9204,2.9195,2.9194,2.9192,2.9191,2.917,2.9166,2.9163,0,0,0,0,0,0,2.9129,2.9145,2.9154,2.9147,2.9153,2.9165,2.916,2.917,2.9173,2.9175,2.9189,2.9191,2.9185,2.919,2.9197,2.9184,2.9197,2.9195,2.9181,2.9177,2.9174,2.9173,2.9215,0,0,0,0,0,2.9123,2.9124,2.9137,2.913,2.9133,2.9146,2.9147,2.9156,2.9162,2.9164,2.9172,2.9177,2.9178,2.9178,2.918,2.917,2.9172,2.9165,2.9162,2.9159,2.9157,2.9152,2.9149,2.9185,2.9185,2.9185,0,0,2.911,2.9119,2.9118,2.9125,2.9131,2.913,2.9148,2.9146,2.9146,2.9164,2.916,2.9166,2.9173,2.9166,2.9163,2.917,2.9148,2.9157,2.9155,2.9155,2.9151,2.9147,2.9144,2.9185,2.9185,2.9185,0,0,2.9086,2.9093,2.9088,2.9094,2.9102,2.9111,2.911,2.9122,2.9126,2.9123,2.9137,2.9137,2.9138,2.9142,2.9144,2.9123,2.9133,2.9123,2.9107,2.9102,2.9099,2.9097,2.9089,2.9086,2.9122,2.9122,2.9122,0,2.9069,2.9069,2.9084,2.9082,2.9084,2.9102,2.9097,2.9101,2.9109,2.9111,2.9118,2.912,2.9126,2.912,2.9115,2.9117,2.9115,2.9122,2.9099,2.9096,2.9094,2.9087,2.9084,2.912,2.9121,2.9121,2.9121,0,2.9047,2.9047,2.9042,2.905,2.9052,2.9048,2.9062,2.9063,2.9072,2.908,2.9077,2.9084,2.9088,2.9087,2.9096,2.9083,2.9086,2.9096,2.9109,2.9089,2.9082,2.9079,2.9119,2.9119,2.9119,2.912,0,0,2.9006,2.9024,2.9022,2.9026,2.9037,2.9037,2.9034,2.9039,2.9038,2.9044,2.9041,2.9042,2.9052,2.9054,2.9064,2.906,2.9042,2.907,2.907,2.9064,2.9027,2.9019,2.9015,2.9049,2.9049,2.9048,2.9026,0,2.8983,2.898,2.8994,2.8986,2.8986,2.9004,2.9001,2.9008,2.9016,2.9016,2.9025,2.9025,2.9038,2.904,2.9037,2.9045,2.9034,2.9047,2.9046,2.9045,2.9042,2.9011,2.9003,2.8981,2.9024,2.9023,2.9023,0,2.8956,2.8961,2.8954,2.8966,2.8967,2.8964,2.8969,2.897,2.8978,2.8984,2.8988,2.8999,2.8996,2.901,2.9006,2.9014,2.9015,2.9019,2.9018,2.9018,2.9032,2.9009,2.8975,2.8971,2.9019,2.9019,2.9019,0,2.8926,2.8931,2.8927,2.8931,2.8945,2.8943,2.8949,2.8957,2.8959,2.8964,2.8965,2.8969,2.8971,2.8973,2.8985,2.8994,2.898,2.8994,2.8984,2.8983,2.8979,2.8979,2.8943,2.8981,2.8981,2.8981,2.8981,0,2.8898,2.8893,2.8914,2.8912,2.8906,2.8922,2.8916,2.8924,2.8932,2.8931,2.8946,2.8945,2.8962,2.8962,2.8971,2.8966,2.8967,2.8971,2.8974,2.8969,2.8969,2.8969,2.897,2.8981,2.8981,2.8981,2.8981,0,2.8863,2.8877,2.8874,2.8889,2.8893,2.8888,2.89,2.8898,2.8908,2.8906,2.8907,2.8921,2.8922,2.8935,2.8939,2.8945,2.8936,2.8942,2.8934,2.8935,2.8924,2.8924,2.8886,2.8882,2.8924,2.8923,2.8923,0,2.8844,2.884,2.8855,2.8856,2.8861,2.8863,2.8865,2.8881,2.8883,2.8892,2.8889,2.8891,2.8894,2.8895,2.8906,2.8909,2.8914,2.8901,2.8914,2.891,2.8912,2.8912,2.8911,2.8897,2.8896,2.8896,2.8896,0,2.8808,2.8816,2.8819,2.8824,2.8827,2.8832,2.8838,2.8838,2.8855,2.8856,2.8858,2.8861,2.8865,2.8867,2.8872,2.8878,2.8889,2.8892,2.8889,2.8884,2.8879,2.888,2.8924,2.8892,2.8892,2.8893,2.8893,2.8893,2.878,2.8777,2.8788,2.879,2.8797,2.8802,2.8801,2.8811,2.8814,2.8819,2.8829,2.8829,2.8837,2.8845,2.885,2.885,2.8857,2.8854,2.8853,2.8851,2.8848,2.888,2.8851,2.8851,2.8852,2.8852,2.8852,0,2.8744,2.8752,2.8754,2.8763,2.8765,2.8778,2.8785,2.8786,2.8786,2.8793,2.8796,2.8799,2.8801,2.8812,2.8816,2.8814,2.8819,2.8814,2.8814,2.8815,2.8843,2.8844,2.881,2.881,2.881,2.881,2.881,2.881,2.8725,2.8722,2.8731,2.8731,2.8739,2.874,2.8743,2.8748,2.8754,2.8756,2.8759,2.8766,2.8775,2.878,2.8782,2.8786,2.8786,2.8778,2.8783,2.8809,2.8813,2.8816,2.8818,2.8779,2.8779,2.8755,2.8755,2.8755]}]]